Regional Weather Roundup
Issued by NWS

Home | Current Version | Previous Version | Text Only | Print | Product List | Glossary On
Versions: 1 2 3 4 5 6 7 8 9 10 11 12 13 14 15 16 17 18 19 20 21 22 23 24 25 26 27 28 29 30 31 32 33 34 35 36 37 38 39 40 41 42 43 44 45 46 47 48 49 50
000
ASUS43 KDTX 211301
RWRMI
MICHIGAN HOURLY REGIONAL WEATHER ROUNDUP
NATIONAL WEATHER SERVICE DETROIT/PONTIAC MI
800 AM EST TUE FEB 21 2017

NOTE: "FAIR" INDICATES FEW OR NO CLOUDS BELOW 12,000 FEET WITH NO
SIGNIFICANT WEATHER AND/OR OBSTRUCTION TO VISIBILITY.

MIZ047>049-052>055-059>063-066>070-074>076-081>083-211400-
SOUTHEAST LOWER MICHIGAN

CITY           SKY/WX    TMP DP  RH WIND       PRES   REMARKS
ADRIAN         CLOUDY    37  35  92 CALM      29.99R
ALMA           LGT RAIN  44  38  81 S6        29.93R
ANN ARBOR      PTCLDY    39  34  82 SE3       29.97F
BAD AXE        CLOUDY    40  32  73 S12       29.93S WCI  33
CARO           CLOUDY    48  37  64 S9        29.94R
DETROIT CITY   CLOUDY    39  34  82 SE6       29.98F WCI  35
DETROIT        CLOUDY    40  33  76 CALM      29.99S
FLINT          CLOUDY    48  37  65 SW10      29.96R
GROSSE ILE     CLOUDY    39  35  84 CALM      29.98S
HILLSDALE      CLOUDY    43  37  81 S6        29.96R
HOWELL         CLOUDY    44  36  71 S6        29.95R

CITY           SKY/WX    TMP DP  RH WIND       PRES   REMARKS
JACKSON        CLOUDY    46  38  73 S5        29.96R
LAMBERTVILLE   CLOUDY    38  35  89 CALM      29.99R
LANSING        CLOUDY    48  37  65 CALM      29.94S
LAPEER         MOCLDY    46  35  67 S9        29.96R
MASON          CLOUDY    44  38  79 CALM      29.95S
MONROE         CLOUDY    38  35  89 CALM      29.98R
MT. CLEMENS    CLOUDY    37  35  91 SE6       29.96F WCI  32
PONTIAC        CLOUDY    39  32  76 CALM      29.95F
PORT HOPE        N/A     42  32  67 S9        29.90S
PORT HURON     CLOUDY    37  32  81 S6        29.97F WCI  33
TRI CITIES     CLOUDY    44  36  73 SW6       29.94R
MIDLAND        RAIN      41  33  73 CALM      29.92S
TROY           CLOUDY    39  31  72 CALM      30.00S
SAGINAW HB     CLOUDY    46  36  66 S13       29.93R
$$
MIZ043>046-050>051-056>058-064>065-071>073-077>080-211400-
SOUTHWEST LOWER MICHIGAN

CITY           SKY/WX    TMP DP  RH WIND       PRES   REMARKS
BATTLE CREEK   CLOUDY    50  41  71 SW9       29.96R
BENTON HARBOR  LGT RAIN  53  49  86 S7        29.95R FOG
BIG RAPIDS     CLOUDY    44  42  92 W3        29.89R FOG
COLDWATER      CLOUDY    50  40  68 SW6       29.97R
FREMONT        CLOUDY    49  49 100 SW7       29.88F FOG
HOLLAND        LGT RAIN  54  49  83 SW8       29.92R
GRAND RAPIDS   LGT RAIN  49  43  80 SW3       29.91F
IONIA          RAIN      47  41  81 W3        29.92S
KALAMAZOO      CLOUDY    50  40  68 SW7       29.97R
LUDINGTON      CLOUDY    49  47  94 SW16      29.86R FOG
MARSHALL       CLOUDY    50  40  68 S7        29.95R
MOUNT PLEASANT RAIN      40  38  91 SE5       29.91R
MUSKEGON       CLOUDY    49  47  93 S15       29.89F FOG
SOUTH HAVEN    LGT RAIN  52  49  90 CALM      29.94R
$$
MIZ016>042-211400-
NORTHERN LOWER MICHIGAN

CITY           SKY/WX    TMP DP  RH WIND       PRES   REMARKS
ALPENA         LGT RAIN  40  37  89 S12       29.84F WCI  33
BEAVER ISLAND  CLOUDY    46  45  97 SW18G30   29.78R FOG
BELLAIRE       MIX PCPN  45  43  92 CALM      29.84R
CADILLAC       CLOUDY    42  41  97 SW6       29.85S FOG
CHARLEVOIX     CLOUDY    46  44  91 S14G21    29.83R
FRANKFORT      CLOUDY    50  48  93 SW9       29.83S FOG
GAYLORD        CLOUDY    42  37  82 S14       29.81F
GRAYLING       CLOUDY    41  39  93 S7        29.85S FOG
HARBOR SPRINGS CLOUDY    44  43  95 SW7G22    29.80R
HOUGHTON LAKE  LGT RAIN  41  37  86 SW5       29.87F
MANISTEE       CLOUDY    50  49  96 S3        29.85R FOG
OSCODA         MIX PCPN  40  32  72 SW12      29.91R WCI  33
PELLSTON       LGT RAIN  48  43  82 SW15G24   29.79R
ROGERS CITY    FLURRIES  41  37  87 S15G21    29.80F
TRAVERSE CITY  CLOUDY    50  46  86 S6        29.81R
$$
MIZ007>008-015-211400-
EASTERN UPPER MICHIGAN

CITY           SKY/WX    TMP DP  RH WIND       PRES   REMARKS
KINROSS        MIX PCPN  34  34 100 SE3       29.77R FOG
MACKINAC ISLAN CLOUDY    45  45 100 SW14G24   29.77R
NEWBERRY       FOG       39  38  97 SW10      29.74R VSB 1/2 WCI  32
S. S. MARIE    LGT RAIN  35  33  92 E6        29.77S FOG     WCI  30
MUNISING         N/A     43  43 100 S7        29.74R
$$
MIZ004>006-011>014-085-211400-
CENTRAL UPPER MICHIGAN

CITY           SKY/WX    TMP DP  RH WIND       PRES   REMARKS
MANISTIQUE     FOG       36  35  97 S7        29.75R VSB 1/2 WCI  30
ESCANABA       FOG       38  38 100 CALM      29.78R VSB<1/4
MENOMINEE      CLEAR     47  45  93 W6        29.82R
SAWYER-GWINN   MOCLDY    43  39  87 W6        29.75
$$
MIZ001>003-009>011-084-211400-
WESTERN UPPER MICHIGAN

CITY           SKY/WX    TMP DP  RH WIND       PRES   REMARKS
IRON MOUNTAIN  CLEAR     43  38  82 W9        29.77R
HOUGHTON       CLOUDY    37  32  82 W25G35    29.73R WCI  25
COPPER HARBOR    N/A     39  34  82 NW14G28   29.69R WCI  31
IRONWOOD       PTCLDY    36  33  89 SW6       29.81R WCI  31
$$

ABBREVIATIONS USED IN REMARKS
   TC - TEMPERATURE IN CELSIUS
  WCI - WIND CHILL INDEX
   HX - HEAT INDEX
  VSB - VISIBILITY





USA.gov is the U.S. government's official web portal to all federal, state and local government web resources and services.